Facebook Twitter

Wetterstation Wittmundhafen

Messwerte
  Temperatur Wetter Niederschlag Luftdruck Wind
Sa, 05:00 Uhr 11° - - 1015.4 hPa 11 km/h W
Sa, 04:20 Uhr 11° - - 1015 hPa 11 km/h W
Sa, 04:00 Uhr 11° - - 1015.3 hPa 7 km/h W
Sa, 03:20 Uhr 11° - - 1015 hPa 11 km/h W
Sa, 03:00 Uhr 11° - - 1015.2 hPa 11 km/h W
Sa, 02:20 Uhr 11° - - 1015 hPa 14 km/h NW
Sa, 02:00 Uhr 11° - - 1015.1 hPa 14 km/h NW
Sa, 01:20 Uhr 11° - - 1015 hPa 13 km/h W
Sa, 01:00 Uhr 11° - - 1015.3 hPa 14 km/h W
Sa, 00:20 Uhr 11° - - 1015 hPa 14 km/h W
Sa, 00:00 Uhr 11° - - 1015.3 hPa 14 km/h NW
Fr, 23:20 Uhr 11° - - 1015 hPa 16 km/h NW
Fr, 23:00 Uhr 11° - - 1015.3 hPa 14 km/h NW
Fr, 22:20 Uhr 11° - - 1015 hPa 13 km/h NW
Fr, 22:00 Uhr 12° - - 1015.2 hPa 14 km/h NW
Fr, 21:20 Uhr 12° - - 1015 hPa 21 km/h NW
Fr, 21:00 Uhr 12° - - 1014.9 hPa 18 km/h NW
Fr, 20:20 Uhr 12° - - 1014 hPa 21 km/h NW
Fr, 20:00 Uhr 12° bewölkt 0 mm 1014.5 hPa 22 km/h NW

Böen 47 km/h
Fr, 19:20 Uhr 13° wolkig - 1014 hPa 23 km/h NW

Alle Zeitangaben MESZ